This demonstration page uses our WeatherBlox Daily Observations layout. Learn more.

Left ArrowRight Arrow

38.88101, -77.10428

Hourly Observations for January 16, 2015

Temp ( °F °C ) Dew Point ( °F °C ) Humidity (%) Winds ( mph kmh ) Pressure ( in mb ) Visibility ( mi km ) Precip ( " mm )
12:52 am 00:52 Clear 30 -1.1 25 -3.9 82 82 SSW 6 9 30.01 1016 9 14 N/A
1:52 am 01:52 Clear 31 -0.6 25 -3.9 79 79 S 3 6 30.01 1016 7 11 N/A
2:52 am 02:52 Mostly Clear 30 -1.1 26 -3.3 85 85 S 5 7 29.99 1016 7 11 N/A
3:52 am 03:52 Mostly Clear 30 -1.1 25 -3.9 82 82 S 5 7 29.97 1015 7 11 N/A
4:52 am 04:52 Mostly Clear 30 -1.1 25 -3.9 82 82 N N/A 29.97 1015 7 11 N/A
5:52 am 05:52 Mostly Clear 28 -2.2 23 -5 81 81 SSW 5 7 29.97 1015 8 13 N/A
6:52 am 06:52 Clear 30 -1.1 24 -4.4 79 79 SSW 6 9 29.98 1015 10 16 N/A
7:52 am 07:52 Sunny 30 -1.1 25 -3.9 82 82 S 7 11 29.98 1015 8 13 N/A
8:52 am 08:52 Sunny 33 0.6 27 -2.8 78 78 S 9 15 30.00 1016 8 13 N/A
9:52 am 09:52 Sunny 44 6.7 23 -5 43 43 WNW 17 28 30.03 1017 10 16 N/A
10:52 am 10:52 Partly Cloudy 46 7.8 23 -5 40 40 WNW 14 22 30.04 1017 10 16 N/A
11:52 am 11:52 Partly Cloudy 46 7.8 24 -4.4 42 42 WNW 22 35 30.03 1017 10 16 N/A
12:52 pm 12:52 Partly Cloudy 46 7.8 23 -5 40 40 W 22 35 30.02 1017 10 16 N/A
1:52 pm 13:52 Partly Cloudy 48 8.9 23 -5 37 37 WNW 7 11 30.01 1016 10 16 N/A
2:52 pm 14:52 Partly Cloudy 47 8.3 22 -5.6 37 37 WNW 17 28 30.02 1017 10 16 N/A
3:52 pm 15:52 Partly Cloudy 46 7.8 21 -6.1 37 37 NW 13 20 30.04 1017 10 16 N/A
4:52 pm 16:52 Partly Cloudy 44 6.7 20 -6.7 38 38 NW 15 24 30.05 1018 10 16 N/A
5:52 pm 17:52 Mostly Clear 42 5.6 20 -6.7 41 41 WNW 13 20 30.08 1019 10 16 N/A
6:52 pm 18:52 Clear 41 5 21 -6.1 45 45 WNW 7 11 30.12 1020 10 16 N/A
7:52 pm 19:52 Clear 40 4.4 21 -6.1 47 47 W 6 9 30.15 1021 10 16 N/A
8:52 pm 20:52 Clear 39 3.9 21 -6.1 48 48 WNW 6 9 30.17 1022 10 16 N/A
9:52 pm 21:52 Partly Cloudy 38 3.3 21 -6.1 51 51 N 7 11 30.20 1023 10 16 N/A
10:52 pm 22:52 Mostly Cloudy 37 2.8 19 -7.2 48 48 N 14 22 30.25 1024 10 16 N/A
11:52 pm 23:52 Mostly Cloudy 35 1.7 17 -8.3 48 48 NNE 10 17 30.27 1025 10 16 N/A

Powered by AerisWeather